SHIELDS 1

Last updated on Wed Nov 20 2024 00:03:37 GMT+0000 (Coordinated Universal Time)

1 43850U 18104B 24324.55070426 .00023595 00000+0 47773-3 0 9992 2 43850 85.0205 177.0984 0007813 189.1971 170.9142 15.46254815330093
UTC large
Height (km)
Speed (km/s)
/
Latitude / Longitude
Inclination (degrees)
Orbital Period (minutes)
Azimuth
Elevation
Range (km)
Doppler Factor

Next 0 passes for location: London (51.5072 / 0.1276)

Sorry there are no passes over London.